Location: Hermaringen
(48.5952°N, 10.2585°E)
Time: 02:44:35
(UTC+00:00)

Altair - Pass Details

Date: 23 February 2026
Orbit: 1502 x 1682 km, 47.2° (Epoch: 13 March)

Event Time Altitude Azimuth Distance (km) Brightness Sun altitude
Rises 07:04:06 0° 283° (WNW) 4,664 9.4 7.3°
Reaches altitude 10° 07:07:07 10° 281° (W) 3,696 8.9 7.7°
Maximum altitude 07:16:21 69° 201° (SSW) 1,657 7.9 9.1°
Drops below altitude 10° 07:25:56 10° 121° (ESE) 3,823 13.5 10.5°
Sets 07:29:06 0° 119° (ESE) 4,831 12.4 11.0°
